Wellington, UT

4:29 AM MDT on August 28, 2016 (GMT -0600)
Carbon County

Weather History for KPUC - April, 2014

Change the Weather History Date:

Thursday, April 24, 2014

  Actual Average Record
Temperature  
Mean Temperature 45 °F -  
Max Temperature 63 °F 59 °F 86 °F (2012)
Min Temperature 28 °F 34 °F 25 °F (1970)
Degree Days  
Heating Degree Days 20    
Moisture  
Dew Point 9 °F    
Average Humidity 25    
Maximum Humidity 43    
Minimum Humidity 13    
Precipitation  
Precipitation 0.00 in - - ()
Sea Level Pressure  
Sea Level Pressure 30.05 in    
Wind  
Wind Speed 4 mph (ENE)    
Max Wind Speed 13 mph    
Max Gust Speed 20 mph    
Visibility 10 miles    
Events      
Averages and records for this station are not official NWS values.
T = Trace of Precipitation, MM = Missing Value Source: NWS Daily Summary

Daily Weather History Graph

Daily Weather History Graph

Search for Another Location

Airport or City:

Trip Planner

Search our weather history database for the weather conditions in past years. The results will help you decide how hot, cold, wet, or windy it might be!

Date:

Astronomy

Apr. 24, 2014 Rise Set
Actual Time 6:32 AM MDT 8:10 PM MDT
Civil Twilight 6:04 AM MDT 8:38 PM MDT
Nautical Twilight 5:29 AM MDT 9:13 PM MDT
Astronomical Twilight 4:53 AM MDT 9:50 PM MDT
Moon 3:45 AM MDT (4/24) 3:30 PM MDT (4/24)
Length of Visible Light 14h 34m
Length of Day
13h 37m
Waning Crescent, 24% of the Moon is Illuminated
Apr 24
Waning Crescent
Apr 29
New
May 6
First Quarter
May 14
Full
May 21
Last Quarter

Hourly Weather History & Observations

Time (MDT) Temp. Windchill Dew Point Humidity Pressure Visibility Wind Dir Wind Speed Gust Speed Precip Events Conditions
12:53 AM 33.1 °F 28.7 °F 8.1 °F 35% 30.10 in 10.0 mi West 4.6 mph - N/A   Clear
1:53 AM 33.1 °F - 8.1 °F 35% 30.10 in 10.0 mi Calm Calm - N/A   Clear
2:53 AM 30.0 °F 26.5 °F 8.1 °F 40% 30.11 in 10.0 mi North 3.5 mph - N/A   Clear
3:53 AM 30.0 °F - 9.0 °F 41% 30.12 in 10.0 mi Calm Calm - N/A   Clear
4:53 AM 30.0 °F - 9.0 °F 41% 30.13 in 10.0 mi Calm Calm - N/A   Clear
5:53 AM 28.9 °F 20.4 °F 9.0 °F 43% 30.14 in 10.0 mi NNE 9.2 mph - N/A   Clear
6:53 AM 30.9 °F 25.2 °F 10.0 °F 42% 30.15 in 10.0 mi NNE 5.8 mph - N/A   Clear
7:53 AM 36.0 °F - 12.0 °F 37% 30.15 in 7.0 mi Calm Calm - N/A   Clear
8:53 AM 39.9 °F - 10.9 °F 31% 30.16 in 10.0 mi Calm Calm - N/A   Clear
9:53 AM 45.0 °F 43.5 °F 10.0 °F 24% 30.15 in 10.0 mi West 3.5 mph - N/A   Clear
10:53 AM 48.9 °F - 10.0 °F 21% 30.16 in 10.0 mi Variable 3.5 mph - N/A   Clear
11:53 AM 51.1 °F - 10.0 °F 19% 30.13 in 10.0 mi Variable 3.5 mph - N/A   Clear
12:53 PM 55.0 °F - 10.0 °F 17% 30.09 in 10.0 mi SW 8.1 mph 18.4 mph N/A   Clear
1:53 PM 55.9 °F - 10.0 °F 16% 30.06 in 10.0 mi WNW 5.8 mph - N/A   Clear
2:53 PM 61.0 °F - 10.0 °F 13% 30.02 in 10.0 mi SE 12.7 mph 19.6 mph N/A   Clear
3:53 PM 60.1 °F - 10.0 °F 14% 30.00 in 10.0 mi Calm Calm - N/A   Clear
4:53 PM 62.1 °F - 10.0 °F 13% 29.97 in 10.0 mi North - - N/A   Clear
5:53 PM 61.0 °F - 10.0 °F 13% 29.96 in 10.0 mi SSE 5.8 mph - N/A   Clear
6:53 PM 60.1 °F - 9.0 °F 13% 29.94 in 10.0 mi ESE 9.2 mph - N/A   Clear
7:53 PM 57.9 °F - 9.0 °F 14% 29.93 in 10.0 mi ESE 8.1 mph - N/A   Clear
8:53 PM 53.1 °F - 9.0 °F 17% 29.93 in 10.0 mi ENE 8.1 mph - N/A   Clear
9:53 PM 48.9 °F - 8.1 °F 19% 29.94 in 10.0 mi ENE 5.8 mph - N/A   Clear
10:53 PM 45.0 °F 41.8 °F 8.1 °F 22% 29.93 in 10.0 mi ENE 5.8 mph - N/A   Clear
11:53 PM 43.0 °F 38.2 °F 8.1 °F 24% 29.92 in 10.0 mi NE 8.1 mph - N/A   Clear